Погода в Светлом Яре

Россия / Волгоградская область     48°28′32″N   44°46′48″E
темп.,
°C
ветер,
м/с
пор.,
м/с
влажн.,
%
обл.,
%
осадки,
мм/ч
давл.,
гПа
погр.,
м
16 мая, вс
вс1600:00+19ююв4123820 0.0 1014185
03:00+17ююв4842100 0.0 1014101
06:00+18юв355496 0.0 1014117
09:00+25юв4637100 0.0 1014515
12:00+31юв611235 0.0 10132208
15:00+33юв8101815 0.0 10123217
18:00+28юв61133100 0.0 1011259
21:00+24юв6153011 0.0 1012292
17 мая, пн
пн1700:00+20вюв411366 0.0 1012168
03:00+18в4103615 0.0 1011143
06:00+19в311445 0.0 1012219
09:00+27вюв7133127 0.0 1012662
12:00+31юв9121664 0.0 10112776
15:00+32вюв81118100 0.0 10103069
18:00+28вюв61327100 0.0 1009316
21:00+22юв493047 0.0 1010125
18 мая, вт
вт1800:00+20в453296 0.0 101053
03:00+18всв233385 0.0 100819
06:00+18всв384177 0.0 1008209
09:00+27юв712295 0.0 1008857
12:00+32юв1015195 0.0 10072435
15:00+32юв101418100 0.0 10073225
18:00+27юв61329100 0.0 1007395
21:00+27юв81521100 0.0 1008467
19 мая, ср
ср1900:00+20ююз334299 0.0 100828
03:00+18з3375100 0.0 100856
06:00+18з4578100 0.0 1009204
09:00+22зсз666264 0.0 1009532
12:00+25зсз6551100 0.0 10091058
15:00+24з8847100 0.1 1009911
18:00+18зюз101466100 0.3 1011737
21:00+15з5977100 0.6 1013526
20 мая, чт
чт2000:00+14ююз348598 0.0 101381
03:00+13юз48926 0.0 1014202
06:00+15зюз510825 0.0 1015476
09:00+18зюз666794 0.1 10161109
12:00+20зюз675698 0.6 10161510
15:00+20зюз895375 0.8 10171092
18:00+19з58550 0.0 1017464
21:00+16з33631 0.0 101831